Location: Bratsk-Energetik
(56.3300°N, 101.7600°E)
Time: 07:04:21
(UTC+08:00)

ISS - Pass Details

Date: 18 July 2018
Orbit: 402 x 408 km, 51.6° (Epoch: 18 July)

Event Time Altitude Azimuth Distance (km) Brightness Sun altitude
Rises 03:46:40 0° 268° (W) 2,331 -0.3 -6.6°
Reaches altitude 10° 03:48:55 10° 257° (WSW) 1,470 -1.4 -6.4°
Maximum altitude 03:51:48 28° 196° (SSW) 798 -2.9 -6.2°
Drops below altitude 10° 03:54:41 10° 135° (SE) 1,468 -1.1 -5.9°
Sets 03:56:55 0° 123° (ESE) 2,328 0.1 -5.7°
